GW2188 Weather Reports


Display with metric or nautical units.
time (UTC)temp
F
wind
direction
speed
MPH
gust
MPH
rain 1hr
in
rain 24hr
in
rain mn
in
humidity
%
barometer
mb
20260504110545 47 59 0.0 0.0 0.00 0.00 0.00 77 1016.7
20260504100511 47 59 0.0 0.0 0.00 0.00 0.00 76 1016.8
20260504090122 47 265 0.0 0.0 0.00 0.00 0.00 74 1017.4
20260504081518 49 265 0.0 1.0 0.00 0.00 0.00 70 1017.6
20260504081003 49 265 0.0 1.0 0.00 0.00 0.00 68 1017.6
20260504080550 49 265 0.0 1.0 0.00 0.00 0.00 67 1017.7
20260504050557 47 265 0.0 0.0 0.00 0.00 0.00 56 1018.4
20260504050016 47 265 0.0 0.0 0.00 0.00 0.00 57 1018.3
20260504045602 47 265 0.0 0.0 0.00 0.00 0.00 56 1018.4
20260504045047 47 265 0.0 0.0 0.00 0.00 0.00 57 1018.3
20260504044518 47 265 0.0 0.0 0.00 0.00 0.00 57 1018.5
20260504044057 48 265 0.0 0.0 0.00 0.00 0.00 55 1018.5
20260504043543 48 265 0.0 0.0 0.00 0.00 0.00 56 1018.4
20260504043048 48 265 0.0 0.0 0.00 0.00 0.00 55 1018.5
20260504042525 48 265 0.0 0.0 0.00 0.00 0.00 55 1018.4
20260504042010 48 265 0.0 0.0 0.00 0.00 0.00 55 1018.4
20260504041513 48 265 0.0 0.0 0.00 0.00 0.00 55 1018.4
20260504041059 48 265 0.0 0.0 0.00 0.00 0.00 55 1018.4
20260504040544 48 265 0.0 0.0 0.00 0.00 0.00 55 1018.5
20260504040003 48 265 0.0 0.0 0.00 0.00 0.00 55 1018.5
20260504035554 48 265 0.0 0.0 0.00 0.00 0.00 54 1018.5
20260504035036 48 265 0.0 0.0 0.00 0.00 0.00 53 1018.5
20260504034537 48 265 0.0 0.0 0.00 0.00 0.00 53 1018.5
20260504034022 49 265 0.0 0.0 0.00 0.00 0.00 53 1018.6
20260504033511 49 265 0.0 0.0 0.00 0.00 0.00 52 1018.6
20260504033030 49 265 0.0 0.0 0.00 0.00 0.00 53 1018.6
20260504032512 49 265 0.0 0.0 0.00 0.00 0.00 52 1018.6
20260504032101 49 265 0.0 0.0 0.00 0.00 0.00 52 1018.6
20260504031521 49 265 0.0 0.0 0.00 0.00 0.00 53 1018.7
20260504031004 49 265 0.0 0.0 0.00 0.00 0.00 51 1018.6
20260504030553 49 265 0.0 0.0 0.00 0.00 0.00 52 1018.6
20260504030052 49 265 0.0 0.0 0.00 0.00 0.00 51 1018.6
20260504025537 49 265 0.0 0.0 0.00 0.00 0.00 51 1018.7
20260504025021 49 265 0.0 0.0 0.00 0.00 0.00 51 1018.7
20260504024523 49 265 0.0 0.0 0.00 0.00 0.00 50 1018.6
20260504024008 49 265 0.0 0.0 0.00 0.00 0.00 50 1018.6
20260504023555 49 265 0.0 0.0 0.00 0.00 0.00 50 1018.7
20260504023018 49 265 0.0 0.0 0.00 0.00 0.00 50 1018.7
20260504022603 49 265 0.0 0.0 0.00 0.00 0.00 50 1018.7
20260504022048 49 265 0.0 0.0 0.00 0.00 0.00 50 1018.7
20260504021511 50 265 0.0 0.0 0.00 0.00 0.00 48 1018.6
20260504021056 50 265 0.0 0.0 0.00 0.00 0.00 49 1018.6
20260504020543 50 265 0.0 0.0 0.00 0.00 0.00 49 1018.6
20260504020040 50 265 0.0 0.0 0.00 0.00 0.00 49 1018.7
20260504015526 50 265 0.0 0.0 0.00 0.00 0.00 48 1018.7
20260504015009 50 265 0.0 0.0 0.00 0.00 0.00 48 1018.6
20260504014539 50 265 0.0 0.0 0.00 0.00 0.00 48 1018.7
20260504014017 50 265 0.0 0.0 0.00 0.00 0.00 48 1018.6
20260504013503 50 265 0.0 0.0 0.00 0.00 0.00 47 1018.6
20260504013121 50 265 0.0 0.0 0.00 0.00 0.00 47 1018.6
20260504012547 50 265 0.0 0.0 0.00 0.00 0.00 47 1018.6
20260504012035 50 265 0.0 0.0 0.00 0.00 0.00 47 1018.6
20260504011537 50 265 0.0 0.0 0.00 0.00 0.00 47 1018.6
20260504011017 50 265 0.0 0.0 0.00 0.00 0.00 46 1018.7
20260504010504 50 265 0.0 0.0 0.00 0.00 0.00 46 1018.7
20260504010027 50 265 0.0 0.0 0.00 0.00 0.00 45 1018.6
20260504005510 50 265 0.0 0.0 0.00 0.00 0.00 45 1018.6
20260504005057 50 265 0.0 0.0 0.00 0.00 0.00 45 1018.5
20260504004609 50 265 0.0 0.0 0.00 0.00 0.00 45 1018.4
20260504004043 51 265 0.0 0.0 0.00 0.00 0.00 45 1018.3
20260504003528 51 265 0.0 0.0 0.00 0.00 0.00 44 1018.3
20260504003034 51 265 0.0 0.0 0.00 0.00 0.00 44 1018.3
20260504002512 51 265 0.0 0.0 0.00 0.00 0.00 43 1018.3
20260504002101 52 265 0.0 0.0 0.00 0.00 0.00 43 1018.2
20260504001608 52 265 0.0 0.0 0.00 0.00 0.00 42 1018.3
20260504001044 52 265 0.0 0.0 0.00 0.00 0.00 42 1018.3
20260504000531 53 265 0.0 0.0 0.00 0.00 0.00 41 1018.4
20260504000050 53 265 0.0 0.0 0.00 0.00 0.00 40 1018.4
20260503235536 54 265 0.0 0.0 0.00 0.00 0.00 41 1018.3
20260503235020 54 265 0.0 1.0 0.00 0.00 0.00 39 1018.3
20260503234519 54 277 0.0 3.0 0.00 0.00 0.00 39 1018.4
20260503234001 55 277 0.0 6.0 0.00 0.00 0.00 38 1018.3
20260503233547 55 259 2.0 6.0 0.00 0.00 0.00 37 1018.4
20260503233000 55 305 2.0 6.0 0.00 0.00 0.00 36 1018.4
20260503232548 56 5 0.0 6.0 0.00 0.00 0.00 37 1018.5
20260503232031 56 286 2.0 6.0 0.00 0.00 0.00 35 1018.5
20260503231514 57 252 1.0 7.0 0.00 0.00 0.00 33 1018.4
20260503231056 57 258 2.0 7.0 0.00 0.00 0.00 34 1018.4
20260503230545 57 277 2.0 6.0 0.00 0.00 0.00 34 1018.6
20260503230104 57 201 2.0 6.0 0.00 0.00 0.00 33 1018.5
20260503225545 57 338 1.0 7.0 0.00 0.00 0.00 34 1018.6
20260503225033 58 227 2.0 7.0 0.00 0.00 0.00 35 1018.6
20260503224534 58 346 0.0 3.0 0.00 0.00 0.00 35 1018.7
20260503224015 58 117 0.0 9.0 0.00 0.00 0.00 34 1018.6
20260503223604 58 268 3.0 9.0 0.00 0.00 0.00 32 1018.7
20260503223102 58 325 2.0 10.0 0.00 0.00 0.00 33 1018.6
20260503222546 58 360 3.0 10.0 0.00 0.00 0.00 32 1018.6
20260503222031 58 216 2.0 9.0 0.00 0.00 0.00 33 1018.7
20260503221532 58 286 4.0 9.0 0.00 0.00 0.00 32 1018.7
20260503221015 58 274 2.0 5.0 0.00 0.00 0.00 33 1018.6
20260503220604 58 313 1.0 5.0 0.00 0.00 0.00 34 1018.6
20260503220121 58 50 1.0 5.0 0.00 0.00 0.00 32 1018.6
20260503215544 58 276 2.0 6.0 0.00 0.00 0.00 33 1018.6
20260503215029 58 63 0.0 9.0 0.00 0.00 0.00 32 1018.5
20260503214554 58 210 2.0 9.0 0.00 0.00 0.00 32 1018.6
20260503214041 58 258 2.0 6.0 0.00 0.00 0.00 33 1018.6
20260503213523 58 51 2.0 10.0 0.00 0.00 0.00 33 1018.6
20260503213022 58 219 2.0 10.0 0.00 0.00 0.00 32 1018.6
20260503212507 58 78 4.0 7.0 0.00 0.00 0.00 32 1018.6
20260503212053 58 314 2.0 6.0 0.00 0.00 0.00 32 1018.5
20260503211555 58 288 1.0 8.0 0.00 0.00 0.00 33 1018.7
20260503211039 58 165 4.0 13.0 0.00 0.00 0.00 31 1018.6
20260503210525 58 298 4.0 13.0 0.00 0.00 0.00 31 1018.9
20260503210022 58 288 4.0 10.0 0.00 0.00 0.00 32 1018.8
20260503205507 57 325 3.0 7.0 0.00 0.00 0.00 33 1018.9
20260503205053 58 117 0.0 9.0 0.00 0.00 0.00 33 1019.0
20260503204519 57 339 2.0 8.0 0.00 0.00 0.00 32 1019.1
20260503204102 57 246 4.0 11.0 0.00 0.00 0.00 32 1019.2
20260503203548 57 9 4.0 12.0 0.00 0.00 0.00 32 1019.2
20260503203006 57 265 5.0 14.0 0.00 0.00 0.00 31 1019.4
20260503202555 57 225 6.0 14.0 0.00 0.00 0.00 32 1019.3
20260503202038 57 271 5.0 11.0 0.00 0.00 0.00 32 1019.4
20260503201516 57 82 3.0 8.0 0.00 0.00 0.00 33 1019.4
20260503201001 57 200 1.0 7.0 0.00 0.00 0.00 33 1019.4
20260503200548 57 80 2.0 12.0 0.00 0.00 0.00 33 1019.5
20260503200047 57 103 3.0 16.0 0.00 0.00 0.00 34 1019.7
20260503195532 56 348 2.0 16.0 0.00 0.00 0.00 33 1019.8
20260503195016 56 340 6.0 16.0 0.00 0.00 0.00 33 1020.0
20260503194541 56 19 4.0 12.0 0.00 0.00 0.00 34 1020.0
20260503194026 56 338 5.0 12.0 0.00 0.00 0.00 33 1020.2
20260503193510 56 277 6.0 18.0 0.00 0.00 0.00 33 1020.1
20260503193031 56 205 8.0 18.0 0.00 0.00 0.00 34 1020.1
20260503192514 56 128 2.0 8.0 0.00 0.00 0.00 35 1020.3
20260503192104 56 52 2.0 11.0 0.00 0.00 0.00 35 1020.5
20260503191540 55 309 3.0 14.0 0.00 0.00 0.00 34 1020.4
20260503191024 55 237 5.0 14.0 0.00 0.00 0.00 36 1020.4
20260503190509 55 239 3.0 8.0 0.00 0.00 0.00 35 1020.4
20260503190028 55 325 4.0 10.0 0.00 0.00 0.00 34 1020.6
20260503185512 56 340 1.0 10.0 0.00 0.00 0.00 37 1020.6
20260503185104 55 68 2.0 14.0 0.00 0.00 0.00 35 1020.6
20260503184521 55 222 4.0 13.0 0.00 0.00 0.00 36 1020.8
20260503184006 55 225 4.0 10.0 0.00 0.00 0.00 38 1020.8
20260503183553 54 345 2.0 10.0 0.00 0.00 0.00 39 1020.7
20260503183054 54 246 1.0 6.0 0.00 0.00 0.00 36 1020.7
20260503182536 54 261 2.0 9.0 0.00 0.00 0.00 37 1020.7
20260503182019 53 247 4.0 9.0 0.00 0.00 0.00 38 1021.0
20260503181518 54 252 5.0 9.0 0.00 0.00 0.00 38 1021.0
20260503181002 53 195 4.0 10.0 0.00 0.00 0.00 38 1021.0
20260503180547 54 360 3.0 10.0 0.00 0.00 0.00 38 1021.0
20260503180054 54 113 3.0 8.0 0.00 0.00 0.00 38 1021.1
20260503175529 54 294 3.0 10.0 0.00 0.00 0.00 40 1021.3
20260503175014 53 250 3.0 8.0 0.00 0.00 0.00 41 1021.4
20260503174515 53 105 1.0 10.0 0.00 0.00 0.00 42 1021.4
20260503174104 52 244 4.0 14.0 0.00 0.00 0.00 39 1021.3
20260503173548 52 205 8.0 14.0 0.00 0.00 0.00 40 1021.5
20260503173003 52 107 2.0 14.0 0.00 0.00 0.00 44 1021.3
20260503172550 52 342 3.0 14.0 0.00 0.00 0.00 43 1021.5
20260503172034 52 96 3.0 13.0 0.00 0.00 0.00 42 1021.6
20260503171533 51 120 5.0 13.0 0.00 0.00 0.00 41 1021.6
20260503171015 51 321 5.0 11.0 0.00 0.00 0.00 40 1021.8
20260503170601 51 277 6.0 10.0 0.00 0.00 0.00 41 1021.7
20260503150539 46 234 2.0 11.0 0.00 0.00 0.00 53 1023.1
20260503150104 46 271 4.0 10.0 0.00 0.00 0.00 53 1023.1
20260503131052 41 337 1.0 5.0 0.00 0.00 0.00 72 1022.8
20260503130536 41 98 1.0 5.0 0.00 0.00 0.00 74 1022.8